Temp
-5 -5 -5 -5 -5 -5 -5 -5 -5 -5 -5 -5 -5 -5 -6 -6 -6 -6 -6 -6 -6 -6 -6 -6 -6 -6 -6 -6 -6 -6 -6 -6 -6 -6 -6 -6 -7 -7 -7 -7 -7 -7
-5 -5 -5 -5 -5 -5 -5 -5 -5 -5 -5 -5 -5 -5 -6 -6 -6 -6 -6 -6 -6 -6 -6 -6 -6 -6 -6 -6 -6 -7 -7 -7 -7 -7 -7 -7 -7 -7 -7 -7 -7 -7
-5 -5 -5 -5 -5 -5 -5 -5 -5 -5 -5 -5 -5 -6 -6 -6 -6 -6 -6 -6 -6 -6 -6 -6 -6 -6 -6 -6 -7 -7 -7 -7 -7 -7 -7 -7 -7 -7 -7 -7 -7 -7
-5 -5 -5 -5 -5 -5 -5 -5 -5 -5 -5 -5 -5 -6 -6 -6 -6 -6 -6 -6 -6 -6 -6 -6 -6 -6 -6 -6 -6 -7 -7 -7 -7 -7 -7 -7 -7 -7 -7 -7 -7 -7
-5 -5 -5 -5 -5 -5 -5 -5 -5 -5 -5 -5 -5 -5 -6 -6 -5 -5 -5 -5 -5 -6 -6 -6 -6 -6 -6 -6 -6 -7 -7 -7 -7 -7 -7 -7 -7 -7 -7 -7 -8 -8
-5 -5 -5 -4 -5 -5 -5 -5 -5 -5 -5 -5 -5 -5 -5 -5 -5 -5 -5 -5 -5 -6 -6 -6 -6 -6 -6 -6 -6 -6 -7 -7 -7 -7 -7 -7 -7 -7 -7 -7 -8 -8
-5 -5 -5 -4 -4 -4 -5 -5 -5 -5 -5 -5 -5 -5 -5 -5 -5 -5 -5 -5 -5 -6 -6 -6 -6 -6 -6 -6 -6 -6 -6 -7 -7 -7 -7 -7 -7 -7 -7 -7 -8 -8
-4 -5 -5 -4 -4 -4 -4 -5 -5 -5 -5 -5 -5 -5 -5 -5 -5 -5 -5 -5 -5 -6 -6 -6 -6 -6 -6 -6 -6 -6 -6 -6 -6 -6 -7 -7 -7 -7 -7 -7 -8 -8
-4 -4 -5 -4 -4 -4 -4 -4 -5 -5 -5 -5 -5 -5 -5 -5 -5 -5 -5 -5 -5 -6 -6 -6 -6 -6 -6 -6 -6 -6 -6 -6 -6 -6 -6 -7 -7 -7 -7 -7 -7 -8
-4 -4 -4 -4 -4 -4 -4 -4 -4 -5 -5 -5 -5 -5 -5 -5 -5 -5 -5 -5 -5 -5 -5 -5 -5 -5 -5 -5 -5 -5 -6 -6 -6 -6 -6 -6 -7 -7 -7 -7 -7 -7
-4 -4 -4 -4 -4 -4 -4 -4 -4 -4 -5 -5 -5 -5 -5 -5 -5 -5 -5 -5 -5 -5 -5 -5 -5 -5 -5 -5 -5 -5 -6 -6 -6 -6 -6 -6 -6 -7 -7 -7 -7 -7
-5 -4 -4 -5 -5 -4 -4 -4 -4 -4 -4 -5 -5 -5 -5 -5 -5 -5 -5 -5 -5 -5 -5 -5 -5 -5 -5 -5 -5 -5 -5 -6 -6 -6 -6 -6 -6 -7 -7 -7 -7 -7
-5 -5 -5 -5 -5 -5 -4 -4 -4 -4 -4 -4 -5 -5 -5 -5 -5 -5 -5 -5 -5 -5 -5 -5 -5 -5 -5 -5 -5 -5 -5 -6 -6 -6 -6 -6 -6 -6 -7 -7 -7 -7
-5 -5 -5 -5 -5 -5 -4 -4 -4 -4 -4 -4 -4 -5 -5 -5 -5 -5 -5 -5 -5 -5 -4 -4 -5 -5 -5 -5 -5 -5 -5 -5 -5 -6 -6 -6 -6 -6 -6 -6 -7 -7
-5 -5 -5 -5 -5 -5 -5 -4 -4 -4 -4 -4 -4 -4 -5 -5 -5 -5 -4 -4 -5 -5 -4 -4 -5 -5 -5 -5 -5 -5 -5 -5 -5 -5 -5 -6 -6 -6 -6 -6 -7 -7
-5 -5 -5 -5 -5 -5 -5 -5 -4 -4 -4 -4 -4 -4 -4 -5 -5 -5 -4 -4 -4 -4 -4 -4 -5 -5 -5 -5 -5 -5 -5 -5 -5 -5 -5 -5 -6 -6 -6 -6 -6 -7
-5 -5 -5 -5 -5 -5 -5 -5 -5 -4 -4 -4 -4 -4 -4 -5 -5 -5 -5 -4 -4 -4 -4 -5 -5 -5 -5 -5 -5 -5 -5 -5 -5 -5 -5 -5 -6 -6 -6 -6 -6 -7
-5 -5 -5 -5 -5 -5 -5 -5 -5 -5 -4 -4 -4 -4 -5 -5 -5 -5 -5 -5 -4 -4 -5 -5 -5 -5 -5 -5 -5 -5 -5 -5 -5 -5 -5 -5 -5 -6 -6 -6 -6 -6
-5 -5 -5 -5 -5 -5 -5 -5 -5 -5 -5 -5 -5 -5 -5 -5 -5 -5 -5 -5 -5 -5 -5 -5 -5 -5 -5 -5 -5 -5 -5 -5 -5 -5 -5 -5 -5 -6 -6 -6 -6 -6
-5 -5 -5 -5 -5 -5 -5 -5 -5 -5 -5 -5 -5 -5 -5 -5 -5 -5 -5 -5 -5 -5 -5 -5 -5 -5 -5 -5 -5 -5 -5 -5 -5 -5 -5 -5 -5 -5 -6 -6 -6 -6
-5 -5 -5 -5 -5 -5 -5 -5 -5 -5 -5 -5 -5 -5 -5 -5 -5 -5 -5 -5 -5 -5 -5 -5 -5 -5 -5 -5 -5 -5 -5 -5 -5 -5 -5 -5 -5 -5 -6 -6 -6 -6
-5 -5 -5 -5 -5 -5 -5 -5 -5 -5 -5 -5 -5 -5 -5 -5 -5 -5 -5 -5 -5 -5 -6 -6 -6 -6 -6 -5 -5 -5 -5 -5 -5 -6 -6 -6 -5 -5 -5 -6 -6 -6
-5 -5 -5 -5 -5 -5 -5 -5 -5 -5 -5 -5 -5 -5 -5 -5 -5 -5 -5 -5 -5 -5 -6 -6 -6 -6 -6 -6 -5 -5 -5 -5 -5 -6 -6 -6 -6 -6 -6 -6 -6 -6
-5 -5 -5 -5 -5 -5 -5 -5 -5 -5 -5 -5 -5 -5 -5 -5 -5 -5 -5 -5 -5 -5 -6 -6 -6 -6 -6 -6 -5 -5 -5 -5 -5 -6 -6 -6 -6 -6 -6 -6 -6 -6
-5 -5 -5 -5 -5 -5 -5 -5 -5 -5 -5 -5 -5 -5 -5 -5 -5 -5 -5 -5 -5 -6 -6 -6 -6 -6 -6 -6 -6 -5 -5 -5 -6 -6 -6 -6 -6 -6 -6 -6 -6 -6
-5 -5 -5 -5 -5 -5 -5 -5 -5 -5 -5 -5 -5 -5 -5 -5 -5 -5 -6 -6 -6 -6 -6 -6 -6 -6 -6 -6 -6 -6 -5 -5 -6 -6 -6 -6 -6 -6 -6 -6 -6 -6
Height
5943 5944 5945 5946 5948 5949 5951 5952 5954 5955 5956 5957 5958 5958 5959 5960 5961 5961 5962 5962 5963 5963 5963 5964 5964 5965 5965 5966 5966 5966 5966 5967 5967 5967 5966 5966 5966 5966 5966 5967 5967 5967
5941 5943 5944 5945 5947 5948 5950 5951 5953 5954 5955 5957 5958 5959 5959 5960 5961 5961 5962 5962 5963 5963 5964 5964 5965 5965 5966 5966 5967 5967 5967 5967 5967 5967 5967 5967 5967 5967 5967 5967 5967 5968
5940 5941 5943 5944 5946 5947 5948 5950 5952 5953 5955 5956 5958 5959 5959 5960 5961 5961 5962 5962 5963 5963 5964 5964 5965 5965 5966 5967 5967 5967 5968 5968 5968 5967 5967 5967 5967 5967 5967 5967 5968 5968
5938 5940 5941 5943 5944 5945 5947 5949 5951 5952 5954 5956 5957 5958 5959 5959 5960 5961 5961 5962 5962 5963 5964 5964 5965 5965 5966 5966 5967 5967 5968 5968 5968 5967 5967 5967 5967 5967 5968 5968 5968 5968
5936 5938 5939 5941 5943 5944 5946 5948 5949 5951 5953 5954 5956 5957 5958 5959 5959 5960 5961 5961 5962 5962 5963 5964 5964 5965 5966 5966 5966 5967 5967 5967 5968 5967 5967 5967 5967 5967 5968 5968 5967 5968
5934 5936 5937 5939 5941 5943 5945 5946 5948 5949 5951 5953 5954 5956 5957 5958 5958 5959 5960 5960 5961 5962 5962 5963 5964 5965 5965 5966 5966 5966 5967 5967 5967 5967 5967 5967 5967 5967 5967 5967 5967 5967
5933 5934 5935 5937 5939 5941 5943 5944 5946 5948 5949 5951 5953 5954 5955 5956 5957 5958 5959 5959 5960 5961 5962 5962 5963 5964 5964 5965 5965 5966 5966 5967 5967 5967 5967 5967 5967 5967 5967 5967 5967 5967
5931 5932 5934 5935 5937 5939 5941 5942 5944 5946 5947 5949 5951 5952 5954 5955 5956 5957 5958 5958 5959 5960 5961 5961 5962 5963 5963 5964 5964 5965 5965 5966 5966 5966 5966 5967 5967 5967 5967 5967 5967 5967
5929 5931 5932 5934 5936 5937 5939 5940 5942 5944 5945 5947 5949 5950 5952 5953 5954 5955 5956 5957 5958 5959 5960 5960 5961 5961 5962 5963 5963 5964 5964 5965 5965 5965 5966 5966 5966 5966 5966 5966 5966 5967
5927 5929 5931 5932 5934 5935 5937 5938 5940 5942 5944 5945 5947 5948 5950 5951 5952 5954 5955 5956 5957 5958 5958 5959 5959 5960 5961 5961 5962 5963 5963 5964 5964 5964 5964 5965 5965 5965 5965 5965 5965 5966
5924 5927 5929 5931 5933 5934 5935 5936 5938 5940 5942 5943 5945 5947 5948 5949 5951 5952 5953 5954 5955 5956 5957 5958 5958 5959 5960 5960 5961 5962 5962 5963 5963 5963 5963 5963 5964 5964 5964 5964 5964 5965
5922 5925 5927 5929 5931 5932 5933 5935 5936 5938 5939 5941 5943 5945 5946 5948 5949 5951 5952 5953 5954 5955 5956 5956 5957 5958 5959 5959 5960 5960 5961 5961 5961 5962 5962 5962 5962 5963 5963 5963 5963 5964
5919 5922 5924 5926 5928 5930 5931 5933 5935 5936 5937 5939 5941 5943 5944 5946 5947 5949 5950 5951 5952 5953 5954 5955 5956 5957 5958 5958 5959 5959 5959 5959 5960 5960 5960 5960 5961 5961 5961 5962 5962 5962
5917 5919 5921 5923 5925 5927 5929 5931 5933 5934 5935 5937 5939 5941 5943 5944 5945 5947 5948 5949 5950 5952 5953 5954 5955 5956 5956 5957 5957 5957 5958 5958 5958 5958 5958 5959 5959 5960 5960 5960 5960 5961
5914 5915 5917 5919 5921 5924 5926 5928 5930 5932 5933 5935 5937 5939 5940 5941 5943 5944 5946 5947 5948 5950 5951 5952 5953 5954 5955 5955 5955 5956 5956 5956 5956 5957 5957 5957 5957 5958 5958 5959 5959 5959
5911 5913 5914 5916 5918 5921 5923 5925 5927 5929 5931 5933 5935 5936 5938 5939 5941 5942 5943 5945 5946 5948 5949 5951 5952 5952 5953 5953 5953 5954 5954 5955 5955 5955 5955 5955 5956 5956 5957 5957 5957 5957
5908 5910 5912 5914 5916 5918 5920 5922 5924 5926 5928 5930 5932 5934 5935 5937 5938 5940 5941 5942 5944 5946 5947 5949 5950 5950 5951 5951 5952 5952 5953 5953 5953 5953 5953 5953 5954 5954 5954 5955 5955 5955
5905 5907 5909 5911 5913 5915 5917 5919 5921 5923 5925 5928 5930 5931 5933 5935 5936 5938 5939 5940 5941 5943 5945 5946 5947 5948 5949 5949 5950 5950 5951 5951 5951 5951 5952 5952 5952 5952 5952 5953 5953 5953
5903 5905 5907 5909 5911 5912 5914 5916 5918 5920 5923 5925 5927 5929 5930 5932 5934 5935 5936 5938 5939 5941 5943 5944 5945 5945 5946 5947 5948 5948 5949 5949 5950 5950 5950 5950 5950 5950 5950 5950 5951 5951
5901 5903 5905 5906 5908 5909 5911 5913 5916 5918 5920 5922 5924 5926 5928 5930 5931 5933 5934 5935 5937 5938 5940 5941 5942 5943 5944 5945 5946 5946 5947 5947 5948 5948 5948 5948 5948 5948 5948 5948 5949 5949
5899 5900 5902 5904 5905 5907 5909 5912 5914 5916 5917 5919 5921 5923 5925 5927 5928 5930 5931 5933 5934 5936 5937 5938 5940 5941 5942 5943 5944 5944 5945 5946 5946 5946 5947 5947 5947 5947 5947 5947 5947 5947
5896 5898 5899 5901 5903 5905 5907 5910 5912 5913 5915 5916 5918 5920 5922 5924 5926 5928 5929 5930 5932 5933 5935 5936 5937 5938 5939 5940 5941 5942 5943 5944 5944 5944 5944 5945 5945 5945 5945 5945 5945 5945
5894 5895 5897 5899 5901 5903 5905 5907 5909 5911 5912 5914 5916 5918 5920 5922 5923 5925 5927 5928 5929 5931 5932 5934 5934 5935 5936 5938 5939 5940 5941 5942 5942 5942 5942 5942 5942 5942 5943 5943 5943 5943
5891 5893 5895 5897 5899 5901 5903 5904 5906 5908 5909 5911 5913 5915 5917 5919 5920 5922 5924 5925 5927 5929 5930 5931 5931 5932 5934 5935 5936 5938 5939 5939 5940 5940 5940 5940 5940 5940 5940 5940 5940 5940
5889 5890 5892 5894 5896 5898 5900 5901 5903 5905 5907 5909 5911 5912 5914 5916 5918 5920 5922 5923 5925 5926 5927 5928 5929 5930 5931 5933 5934 5935 5936 5936 5937 5938 5938 5938 5937 5937 5938 5938 5938 5937
5886 5888 5890 5892 5894 5896 5897 5899 5900 5902 5904 5906 5908 5910 5912 5914 5915 5917 5919 5920 5922 5923 5925 5926 5926 5927 5929 5930 5931 5932 5933 5934 5934 5935 5935 5935 5935 5934 5935 5935 5935 5935
Wind_Speed
22 23 23 22 21 20 20 19 19 19 18 17 16 16 17 18 17 16 14 13 12 12 11 11 11 11 11 10 9 9 8 6 5 3 3 3 4 5 5 5 5 6
25 25 25 23 22 22 21 21 21 20 19 17 17 18 19 19 18 16 14 12 11 10 9 8 8 8 7 7 7 6 6 6 5 5 4 3 2 3 4 5 6 6
27 27 26 25 24 24 23 23 22 21 19 17 18 19 19 19 18 16 14 12 11 9 8 7 6 5 5 4 4 3 3 3 3 3 3 3 3 2 2 4 6 7
28 28 27 27 26 25 24 23 22 21 19 18 20 20 20 19 18 16 14 13 11 10 8 7 6 5 4 4 3 3 2 1 1 0 1 2 3 4 3 1 3 6
30 30 29 28 27 26 24 23 23 21 20 20 21 21 21 20 18 17 15 13 12 10 8 7 6 6 5 5 4 4 4 3 3 3 3 3 3 3 4 3 1 2
32 32 31 30 29 27 26 26 25 24 22 22 23 22 21 20 19 17 16 14 12 10 9 8 7 7 6 6 6 5 5 5 5 6 6 6 5 5 4 4 4 2
34 33 32 31 30 29 28 28 27 26 25 24 23 23 22 21 19 18 17 15 13 12 11 10 9 9 8 8 7 7 7 7 7 8 8 8 8 7 6 5 4 4
35 35 34 32 31 30 30 29 28 28 27 25 25 24 23 22 21 19 18 16 14 13 13 12 11 10 10 9 9 8 8 8 9 10 10 10 10 9 7 6 6 5
36 35 35 34 32 32 31 31 30 30 28 27 26 26 25 23 22 21 19 17 16 15 14 14 13 12 12 11 10 9 9 9 10 11 11 11 12 11 9 8 9 7
36 35 35 34 33 33 33 32 32 31 30 29 28 27 26 25 24 22 21 19 17 17 17 16 15 14 13 12 11 10 10 10 11 12 13 12 13 13 11 10 11 10
36 36 35 35 34 34 34 34 33 32 31 30 29 28 27 26 25 23 22 20 19 19 18 17 16 15 13 13 12 11 10 10 11 13 14 14 14 14 13 12 13 12
36 35 35 35 35 35 35 35 34 33 33 32 30 29 29 27 26 24 23 22 22 21 20 18 17 15 14 13 12 11 11 12 12 14 15 15 15 15 14 14 14 13
35 35 35 35 36 36 35 35 35 35 34 33 31 30 30 28 27 26 25 24 23 23 21 19 18 16 15 14 12 12 13 13 14 15 15 16 16 16 15 15 15 14
36 36 36 36 36 36 36 36 36 36 35 34 33 31 30 29 28 27 26 25 25 23 22 20 18 17 16 15 14 14 15 15 15 15 15 16 16 16 16 16 16 15
36 37 37 36 36 36 36 36 37 37 37 36 34 32 32 31 30 29 27 26 26 24 22 21 19 18 17 17 16 16 16 15 15 15 16 15 16 16 16 16 16 16
35 37 37 37 37 36 36 36 37 38 38 37 35 34 34 33 31 30 29 28 27 25 24 22 20 20 19 18 18 17 17 16 15 15 15 15 15 15 16 17 17 17
35 36 37 37 37 36 36 36 37 37 38 37 37 35 35 34 33 32 30 29 28 26 24 23 22 21 21 20 19 18 17 16 16 16 15 15 16 16 16 17 17 18
35 35 36 36 36 36 36 36 37 37 37 37 37 36 35 34 33 32 31 30 29 26 25 24 23 23 22 20 20 19 18 17 16 16 15 15 16 16 17 18 18 19
35 34 34 35 35 36 36 36 36 36 36 36 36 36 35 34 33 32 32 31 29 27 25 25 24 24 22 21 20 20 19 18 17 17 16 16 17 17 17 18 19 19
34 34 34 34 35 35 36 36 35 35 35 35 35 35 35 33 33 32 32 31 29 27 27 26 25 24 23 22 21 20 19 19 18 17 17 17 17 18 18 19 20 20
33 33 33 33 34 34 34 34 34 34 34 34 34 35 34 34 33 33 32 31 29 28 27 27 26 26 25 23 22 21 21 20 19 18 17 18 18 18 19 19 20 21
33 33 33 33 33 33 33 32 32 33 33 33 33 33 34 33 33 32 31 30 29 28 27 26 26 27 25 24 23 22 22 21 19 18 18 19 19 19 19 20 20 20
33 33 33 33 32 32 31 31 31 32 32 33 32 32 32 32 32 31 31 30 29 28 27 27 28 28 26 25 24 23 22 21 21 20 20 19 20 20 20 20 20 20
34 34 33 32 31 30 30 31 31 31 32 32 31 31 31 32 32 31 31 30 29 29 28 28 29 28 27 25 24 23 22 22 22 21 21 20 21 21 20 20 20 21
34 34 33 32 30 29 30 30 30 30 31 30 30 30 31 31 31 30 30 29 29 28 28 28 28 28 26 26 25 23 23 23 23 22 21 21 21 22 21 21 21 21
34 34 33 31 30 29 29 29 29 29 29 29 29 29 29 29 29 29 28 28 28 28 27 27 28 27 26 26 26 25 24 25 25 23 22 21 22 23 23 22 22 22
Wind_Direction
187 186 188 190 189 188 188 188 187 187 186 182 176 167 159 155 152 148 145 140 134 127 122 118 113 109 106 105 106 107 107 108 111 124 150 179 196 202 200 195 188 179
189 190 191 191 191 191 191 192 191 190 188 182 174 167 162 160 159 158 155 152 148 143 138 133 127 121 116 111 107 104 103 99 96 97 105 125 161 194 204 200 192 187
191 193 194 193 193 194 195 195 195 194 191 181 173 169 168 167 167 167 166 165 164 163 160 156 152 148 143 139 134 127 115 101 92 87 87 91 92 106 175 202 202 199
193 196 196 196 195 196 196 197 197 197 192 183 177 175 175 176 176 177 177 177 179 181 180 179 178 177 176 177 183 192 207 234 273 338 37 49 56 62 69 119 201 208
194 197 199 198 198 197 197 198 199 198 195 189 184 183 184 185 185 186 187 189 191 195 197 199 202 205 205 207 211 220 232 248 263 273 284 306 336 6 28 39 54 203
197 199 201 200 199 198 198 200 200 200 199 195 191 190 192 193 193 193 196 199 202 208 213 217 220 223 223 223 225 231 239 248 255 263 271 279 292 308 330 354 7 9
202 201 202 203 201 199 199 200 201 201 201 198 195 195 197 199 200 202 204 207 211 218 224 229 231 229 228 229 231 233 238 246 251 256 262 268 274 281 291 308 323 332
207 205 205 205 203 201 201 201 202 203 204 201 198 199 201 203 206 208 211 214 218 223 229 233 233 231 228 227 230 232 235 242 248 252 256 259 263 267 271 275 280 291
214 210 209 208 206 204 203 202 203 205 205 203 202 202 203 206 209 212 215 218 222 227 230 232 232 229 226 226 229 231 234 239 246 252 255 255 257 261 260 256 260 265
217 215 213 212 210 208 205 204 205 206 207 206 205 204 205 208 211 215 219 222 225 228 229 229 230 228 226 229 232 234 236 239 243 249 255 254 254 258 256 251 253 255
219 217 216 216 215 213 210 207 207 208 208 209 208 207 208 211 214 217 221 224 227 229 228 228 229 228 228 231 237 241 242 243 243 246 252 253 253 255 254 250 251 254
220 219 219 219 219 218 215 211 210 210 211 211 211 210 211 213 216 219 222 225 228 229 228 228 229 229 229 232 237 243 246 248 248 247 250 252 252 252 252 250 251 254
220 220 220 221 222 222 220 216 214 213 213 214 213 212 214 216 218 221 224 226 228 229 229 230 230 230 231 233 237 242 246 251 253 252 253 253 253 253 253 252 253 255
220 220 221 221 222 223 223 220 218 216 216 216 215 215 216 218 220 223 225 227 229 231 230 231 231 230 231 233 237 241 245 250 254 256 257 256 256 256 256 255 255 256
222 221 220 221 222 224 224 223 222 220 219 219 218 217 219 220 223 225 227 229 231 232 231 231 231 230 232 235 239 242 246 250 254 258 260 260 260 259 258 258 257 256
225 223 222 221 222 223 225 225 224 223 222 221 221 220 221 223 225 228 230 231 232 232 231 231 230 229 233 239 242 244 246 249 253 256 259 261 261 260 259 258 257 255
227 226 224 223 222 223 224 225 226 226 225 224 223 223 224 225 227 229 232 234 234 232 231 231 230 230 235 241 245 246 247 249 251 254 257 259 260 260 258 257 256 255
229 229 228 225 224 224 224 225 226 226 226 226 226 226 227 228 229 231 235 237 237 235 233 232 231 232 237 243 246 248 248 249 251 253 255 257 257 258 257 257 256 255
231 231 230 228 226 225 225 225 225 226 227 227 227 228 229 230 231 233 236 238 239 238 236 234 233 235 240 244 247 249 250 250 252 254 255 256 257 257 256 256 256 255
231 231 231 229 228 227 226 226 226 226 227 227 227 228 229 230 232 234 236 238 239 239 237 237 236 238 241 245 247 248 250 252 253 255 256 257 257 257 256 256 255 254
232 231 231 230 229 228 228 227 227 228 228 228 228 228 229 230 232 234 236 238 238 238 238 238 238 240 242 245 246 247 248 251 253 255 256 256 256 256 255 255 254 253
232 231 231 230 229 228 228 228 229 230 231 231 230 230 230 231 233 234 236 238 238 238 238 238 238 240 242 244 245 247 248 250 253 255 256 256 256 255 254 255 255 254
232 231 231 230 229 228 228 228 229 230 231 232 232 231 231 232 233 234 235 236 237 238 239 238 238 240 242 244 246 248 250 252 253 255 256 257 257 256 255 256 257 256
233 231 231 231 230 229 228 228 228 229 231 232 232 232 232 232 233 234 235 236 238 239 240 239 240 242 244 246 248 250 253 254 255 256 258 258 257 256 255 256 256 256
233 231 230 230 230 229 229 229 229 230 231 231 232 232 232 233 234 235 236 238 240 241 241 241 243 245 246 249 251 252 253 255 256 258 260 260 259 256 255 256 257 257
233 230 229 229 228 229 229 230 230 231 231 232 232 233 234 235 236 237 238 240 242 243 243 243 245 247 249 250 252 253 254 255 257 260 261 260 258 256 256 256 257 258